Weather Roundup
Issued by NWS

Home | Current Version | Previous Version | Graphics & Text | Print | Product List | Glossary Off
Versions: 1 2 3 4 5 6 7 8 9 10 11 12 13 14 15 16 17 18 19 20 21 22 23 24 25 26 27 28 29 30 31 32 33 34 35 36 37 38 39 40 41 42 43 44 45 46 47 48 49 50

000
NZUS93 KARX 291359
HRRWXR

CURRENT HOURLY OBSERVATIONS ACROSS
MUCH OF THE UPPER MISSISSIPPI VALLEY
NATIONAL WEATHER SERVICE LA CROSSE WI
900 AM CDT FRI JUL 29 2016


...SOUTHEAST MINNESOTA...


CITY           SKY/WX    TMP DP  RH WIND       PRES   REMARKS
ROCHESTER      CLOUDY    65  61  87 NE10      30.06R
ROCHESTER/MAYO CLOUDY    65  60  85 NE7       30.06R
WINONA         CLOUDY    66  59  77 E7        30.05R
AUSTIN         CLOUDY    64  61  88 N3        30.04S
ALBERT LEA     CLOUDY    64  61  88 N10       30.06R
DODGE CENTER   MOSUNNY  N/A N/A N/A NE6       30.06R
PRESTON        CLOUDY    62  59  90 NE8       30.05R
OWATONNA       PTSUNNY   66  61  82 N6        30.06S
FARIBAULT      CLOUDY    64  61  88 N6        30.07R
$$

...ELSEWHERE IN MINNESOTA...


CITY           SKY/WX    TMP DP  RH WIND       PRES   REMARKS
MINNEAPOLIS    PTSUNNY   66  55  67 E8        30.07S
INTNL FALLS    SUNNY     65  56  72 SE5       30.10S
DULUTH         SUNNY     66  53  63 E9        30.12S
RED WING       CLOUDY    70  57  64 NE5       30.04S
REDWOOD FALLS  SUNNY     67  57  70 NE7       30.09R
MANKATO        CLOUDY    66  57  72 N7        30.07R
WORTHINGTON    MOSUNNY   64  60  87 N7        30.10S
FAIRMONT       CLOUDY    64  57  77 MISG      30.06R
$$

...SOUTHWEST WISCONSIN...


CITY           SKY/WX    TMP DP  RH WIND       PRES   REMARKS
LA CROSSE      CLOUDY    66  58  75 N6        30.03R
PRAIRIE DU CHI CLOUDY    65  62  87 NE6       29.99R
BOSCOBEL       CLOUDY    66  61  84 NE7       30.00R
LONE ROCK      NOT AVBL
PLATTEVILLE    CLOUDY    66  66  97 NE8       29.98R
FORT MC COY    CLOUDY    65  57  76 NE9       30.04S
CAMP DOUGLAS   CLOUDY    63  57  82 NE2       30.04R
MAUSTON-NEW LI CLOUDY    61  60  94 CALM      30.03R
VIROQUA        CLOUDY    63  59  86 NE8       30.03S
WIS DELLS      NOT AVBL
$$

...ELSEWHERE IN WISCONSIN...


CITY           SKY/WX    TMP DP  RH WIND       PRES   REMARKS
MILWAUKEE      CLOUDY    72  64  76 NE13      29.97R
MADISON        LGT RAIN  65  63  93 NE8       29.98S
GREEN BAY      CLOUDY    64  63  96 N8        30.03S
EAU CLAIRE     NOT AVBL
BLACK RVR FLS  CLOUDY    67  56  68 E7        30.05R
MEDFORD        SUNNY     61  55  79 NE6       30.08S
WAUSAU         SUNNY     65  57  75 E8        30.05S
WIS RAPIDS     CLOUDY    66  56  70 E10       30.06R
MARSHFIELD     SUNNY     67  57  70 NE9       30.05R
RICE LAKE      SUNNY     61  53  73 NE9       30.11S
$$

...NORTHEAST IOWA...


CITY           SKY/WX    TMP DP  RH WIND       PRES   REMARKS
WATERLOO       CLOUDY    68  64  87 NE7       29.98R
DUBUQUE        CLOUDY    67  63  87 NE6       29.98R
DECORAH        HVY RAIN  63  63 100 NE5G13    30.01S
MASON CITY     CLOUDY    64  62  93 N13       30.05R
CHARLES CITY   CLOUDY    64  64 100 NE9G15    30.02R
OELWEIN        CLOUDY    66  64  94 NE9       30.00R
$$

...ELSEWHERE IN IOWA...


CITY           SKY/WX    TMP DP  RH WIND       PRES   REMARKS
DES MOINES     CLOUDY    68  61  78 N7        30.02R
IOWA CITY      CLOUDY    71  66  84 NW3       29.98R
FORT DODGE     CLOUDY    63  61  94 N6        30.06R
MARSHALLTOWN   CLOUDY    66  64  93 NW9       29.99R
CEDAR RAPIDS   CLOUDY    68  68 100 N5        29.96R
$$

...NORTHERN ILLINOIS...


CITY           SKY/WX    TMP DP  RH WIND       PRES   REMARKS
CHICAGO-OHARE  PTSUNNY   77  69  76 NE7       29.93S
CHICAGO-MIDWAY PTSUNNY   79  69  71 NE3       29.93R
MOLINE         CLOUDY    75  68  78 W3        29.94R
ROCKFORD       CLOUDY    73  66  78 N8        29.96R
PEORIA         CLOUDY    71  70  96 CALM      29.94R FOG
$$

NOTE: "FAIR" INDICATES FEW OR NO CLOUDS BELOW 12,000 FEET WITH NO
SIGNIFICANT WEATHER AND/OR OBSTRUCTIONS TO VISIBILITY. WIND
SPEEDS ARE IN MILES-PER-HOUR.




USA.gov is the U.S. government's official web portal to all federal, state and local government web resources and services.